CW8398 Weather Reports


Display with metric or nautical units.
time (UTC)temp
F
wind
direction
speed
MPH
gust
MPH
rain 1hr
in
rain 24hr
in
rain mn
in
humidity
%
barometer
mb
20260506051302 41 276 1.0 3.0 0.00 0.00 0.00 76 1010.1
20260506050303 40 293 1.0 3.0 0.00 0.00 0.00 78 1010.1
20260506044302 39 355 1.0 3.0 0.00 0.00 0.00 84 1010.1
20260506043803 38 307 2.0 3.0 0.00 0.00 0.00 86 1010.1
20260506043302 38 358 1.0 3.0 0.00 0.00 0.00 88 1010.1
20260506042803 37 324 1.0 3.0 0.00 0.00 0.00 90 1010.1
20260506042305 36 269 2.0 3.0 0.00 0.00 0.00 93 1010.1
20260506041802 35 304 1.0 2.0 0.00 0.00 0.00 95 1010.1
20260506041303 35 206 0.0 1.0 0.00 0.00 0.00 95 1010.1
20260506040802 34 206 0.0 1.0 0.00 0.00 0.00 95 1010.1
20260506040303 34 206 0.0 1.0 0.00 0.00 0.00 95 1010.1
20260506035802 34 206 0.0 1.0 0.00 0.00 0.00 95 1010.1
20260506035305 34 207 0.0 2.0 0.00 0.00 0.00 95 1010.1
20260506034802 34 205 1.0 3.0 0.00 0.00 0.00 95 1010.1
20260506034303 33 252 1.0 2.0 0.00 0.00 0.00 95 1010.1
20260506033802 33 252 0.0 0.0 0.00 0.00 0.00 95 1010.1
20260506032803 33 252 0.0 2.0 0.00 0.00 0.00 95 1010.1
20260506032305 33 252 1.0 2.0 0.00 0.00 0.00 94 1010.1
20260506031802 33 252 0.0 1.0 0.00 0.00 0.00 95 1010.1
20260506031303 34 252 0.0 1.0 0.00 0.00 0.00 95 1010.1
20260506030802 34 252 1.0 2.0 0.00 0.00 0.00 95 1010.1
20260506030302 34 260 0.0 1.0 0.00 0.00 0.00 95 1010.1
20260506025803 34 260 0.0 2.0 0.00 0.00 0.00 95 1010.1
20260506025305 34 260 0.0 1.0 0.00 0.00 0.00 95 1010.1
20260506024803 34 279 0.0 2.0 0.00 0.00 0.00 96 1010.1
20260506024303 34 331 0.0 1.0 0.00 0.00 0.00 95 1010.1
20260506023802 34 331 0.0 1.0 0.00 0.00 0.00 95 1010.1
20260506023303 34 331 0.0 1.0 0.00 0.00 0.00 95 1010.1
20260506022803 35 331 0.0 1.0 0.00 0.00 0.00 95 1010.1
20260506022305 35 331 0.0 1.0 0.00 0.00 0.00 96 1010.1
20260506021802 35 301 0.0 2.0 0.00 0.00 0.00 96 1010.0
20260506020802 34 227 0.0 1.0 0.00 0.00 0.00 95 1009.7
20260506020303 34 217 0.0 0.0 0.00 0.00 0.00 95 1009.7
20260506015802 34 217 0.0 0.0 0.00 0.00 0.00 95 1009.7
20260506014803 34 217 0.0 0.0 0.00 0.00 0.00 95 1009.7
20260506014302 34 217 0.0 1.0 0.00 0.00 0.00 95 1009.7
20260506013803 34 217 0.0 0.0 0.00 0.00 0.00 95 1009.7
20260506013302 34 217 0.0 0.0 0.00 0.00 0.00 95 1009.7
20260506012803 35 217 0.0 1.0 0.00 0.00 0.00 95 1009.7
20260506011802 35 217 0.0 1.0 0.00 0.00 0.00 95 1009.6
20260506011303 35 217 0.0 1.0 0.00 0.00 0.00 95 1009.5
20260506010803 35 217 0.0 1.0 0.00 0.00 0.00 95 1009.5
20260506005803 34 215 0.0 1.0 0.00 0.00 0.00 95 1009.3
20260506005305 34 215 1.0 2.0 0.00 0.00 0.00 95 1009.3
20260506004802 34 215 0.0 1.0 0.00 0.00 0.00 95 1008.9
20260506004303 35 215 0.0 1.0 0.00 0.00 0.00 95 1008.9
20260506003803 35 215 0.0 1.0 0.00 0.00 0.00 95 1008.9
20260506003303 36 215 1.0 3.0 0.00 0.00 0.00 95 1008.9
20260506002305 36 215 0.0 3.0 0.00 0.00 0.00 95 1008.9
20260506001303 35 223 0.0 0.0 0.00 0.00 0.00 95 1008.9
20260506000803 34 223 0.0 1.0 0.00 0.00 0.00 95 1008.9
20260506000302 34 223 0.0 2.0 0.00 0.00 0.00 95 1008.9
20260505235305 34 223 1.0 2.0 0.00 0.00 0.00 95 1008.9
20260505234802 34 223 1.0 3.0 0.00 0.00 0.00 95 1008.9
20260505234302 34 223 1.0 2.0 0.00 0.00 0.00 94 1008.9
20260505233803 35 223 1.0 2.0 0.00 0.00 0.00 94 1008.8
20260505233303 35 223 0.0 2.0 0.00 0.00 0.00 94 1008.8
20260505232803 36 223 0.0 0.0 0.00 0.00 0.00 95 1008.8
20260505232305 36 223 0.0 1.0 0.00 0.00 0.00 95 1008.8
20260505231802 36 223 0.0 1.0 0.00 0.00 0.00 94 1008.8
20260505231303 37 223 1.0 2.0 0.00 0.00 0.00 95 1008.8
20260505230803 38 265 0.0 1.0 0.00 0.00 0.00 95 1008.8
20260505230303 38 265 1.0 2.0 0.00 0.00 0.00 95 1008.8
20260505225802 38 245 0.0 2.0 0.00 0.00 0.00 95 1008.8
20260505225305 37 240 0.0 1.0 0.00 0.00 0.00 95 1008.5
20260505224303 37 162 0.0 1.0 0.00 0.00 0.00 94 1008.5
20260505223803 37 161 0.0 1.0 0.00 0.00 0.00 94 1008.5
20260505223303 37 161 0.0 1.0 0.00 0.00 0.00 95 1008.5
20260505222803 36 162 0.0 1.0 0.00 0.00 0.00 94 1008.5
20260505222305 36 162 0.0 1.0 0.00 0.00 0.00 94 1008.5
20260505221802 37 162 0.0 0.0 0.00 0.00 0.00 94 1008.5
20260505221303 37 162 0.0 0.0 0.00 0.00 0.00 94 1008.5
20260505220816 37 162 0.0 0.0 0.00 0.00 0.00 94 1008.5
20260505220302 37 162 0.0 0.0 0.00 0.00 0.00 94 1008.3
20260505215803 37 161 0.0 0.0 0.00 0.00 0.00 94 1008.3
20260505215305 38 162 0.0 2.0 0.00 0.00 0.00 94 1008.3
20260505214803 38 162 0.0 2.0 0.00 0.00 0.00 94 1008.3
20260505214302 38 162 0.0 2.0 0.00 0.00 0.00 94 1008.3
20260505213803 38 162 0.0 0.0 0.00 0.00 0.00 94 1008.3
20260505213302 38 162 0.0 1.0 0.00 0.00 0.00 94 1008.2
20260505212802 37 38 1.0 2.0 0.00 0.00 0.00 94 1008.2
20260505211803 38 34 0.0 2.0 0.00 0.00 0.00 93 1008.1
20260505211303 38 34 0.0 0.0 0.00 0.00 0.00 94 1008.1
20260505210303 38 34 0.0 0.0 0.00 0.00 0.00 93 1007.7
20260505205803 38 34 0.0 0.0 0.00 0.00 0.00 94 1007.7
20260505205305 38 34 0.0 0.0 0.00 0.00 0.00 93 1007.7
20260505204802 38 34 0.0 0.0 0.00 0.00 0.00 94 1007.7
20260505204302 38 34 0.0 0.0 0.00 0.00 0.00 94 1007.7
20260505203803 38 34 0.0 0.0 0.00 0.00 0.00 94 1007.7
20260505203303 37 34 0.0 0.0 0.00 0.00 0.00 93 1007.7
20260505202803 37 34 0.0 0.0 0.00 0.00 0.00 93 1007.7
20260505202306 37 34 1.0 1.0 0.00 0.00 0.00 93 1007.7
20260505201802 37 34 1.0 2.0 0.00 0.00 0.00 93 1007.2
20260505201302 38 34 1.0 1.0 0.00 0.00 0.00 93 1007.2
20260505200303 38 34 0.0 1.0 0.00 0.00 0.00 92 1007.2
20260505195803 38 34 0.0 1.0 0.00 0.00 0.00 92 1007.2
20260505195305 39 34 0.0 0.0 0.00 0.00 0.00 92 1007.2
20260505194802 39 34 0.0 1.0 0.00 0.00 0.00 92 1007.2
20260505194303 39 34 0.0 1.0 0.00 0.00 0.00 91 1007.2
20260505193303 39 34 0.0 1.0 0.00 0.00 0.00 91 1007.2
20260505192305 40 23 0.0 0.0 0.00 0.00 0.00 90 1007.2
20260505191802 40 23 0.0 1.0 0.00 0.00 0.00 89 1007.2
20260505191303 41 23 0.0 2.0 0.00 0.00 0.00 89 1007.2
20260505190303 41 342 1.0 2.0 0.00 0.00 0.00 89 1006.6
20260505185803 41 4 1.0 3.0 0.00 0.00 0.00 89 1006.6
20260505185305 41 19 0.0 3.0 0.00 0.00 0.00 88 1006.6
20260505184803 42 36 1.0 2.0 0.00 0.00 0.00 89 1006.6
20260505184303 41 40 0.0 3.0 0.00 0.00 0.00 88 1006.6
20260505183803 42 32 0.0 2.0 0.00 0.00 0.00 88 1006.6
20260505183303 42 32 1.0 2.0 0.00 0.00 0.00 87 1006.6
20260505182803 42 31 1.0 3.0 0.00 0.00 0.00 88 1006.6
20260505182305 42 32 1.0 3.0 0.00 0.00 0.00 87 1006.6
20260505181803 43 56 1.0 3.0 0.00 0.00 0.00 87 1006.6
20260505181303 43 15 1.0 3.0 0.00 0.00 0.00 87 1006.6
20260505180803 43 31 1.0 3.0 0.00 0.00 0.00 87 1006.6
20260505180303 43 21 2.0 6.0 0.00 0.00 0.00 87 1006.6
20260505175803 43 1 2.0 3.0 0.00 0.00 0.00 87 1006.6
20260505174803 43 38 1.0 3.0 0.00 0.00 0.00 87 1006.2
20260505174303 43 21 1.0 3.0 0.00 0.00 0.00 86 1006.2
20260505173803 43 26 2.0 3.0 0.00 0.00 0.00 86 1006.2
20260505173303 43 5 3.0 6.0 0.00 0.00 0.00 85 1006.2
20260505172305 44 27 2.0 3.0 0.00 0.00 0.00 85 1006.2
20260505171803 44 20 3.0 5.0 0.00 0.00 0.00 85 1006.0
20260505170803 44 344 2.0 5.0 0.00 0.00 0.00 85 1006.0
20260505170303 44 21 2.0 5.0 0.00 0.00 0.00 85 1006.0
20260505165305 45 21 2.0 5.0 0.00 0.00 0.00 84 1005.7
20260505164803 45 15 2.0 5.0 0.00 0.00 0.00 84 1005.7
20260505164303 45 12 2.0 5.0 0.00 0.00 0.00 84 1005.7
20260505163803 45 39 3.0 6.0 0.00 0.00 0.00 85 1005.7
20260505163303 45 349 2.0 5.0 0.00 0.00 0.00 85 1005.7
20260505162803 45 348 2.0 5.0 0.00 0.00 0.00 84 1005.7
20260505161803 46 13 2.0 5.0 0.00 0.00 0.00 82 1005.2
20260505161303 46 347 2.0 8.0 0.00 0.00 0.00 82 1005.2
20260505160303 45 35 3.0 5.0 0.00 0.00 0.00 83 1005.2
20260505153303 48 4 5.0 8.0 0.00 0.00 0.00 77 1005.2
20260505152803 48 11 2.0 8.0 0.00 0.00 0.00 74 1005.2
20260505151803 50 347 2.0 5.0 0.00 0.00 0.00 61 1005.2
20260505150803 51 21 4.0 10.0 0.00 0.00 0.00 49 1005.2
20260505150302 51 335 2.0 6.0 0.00 0.00 0.00 42 1005.2
20260505140303 53 27 4.0 10.0 0.00 0.00 0.00 38 1005.0
20260505130303 53 327 3.0 9.0 0.00 0.00 0.00 40 1004.9
20260505124803 53 9 4.0 6.0 0.00 0.00 0.00 40 1004.9
20260505124303 53 77 3.0 10.0 0.00 0.00 0.00 40 1004.9
20260505122803 51 304 3.0 5.0 0.00 0.00 0.00 44 1004.8
20260505121803 52 268 7.0 12.0 0.00 0.00 0.00 40 1004.8
20260505120803 52 288 3.0 9.0 0.00 0.00 0.00 43 1004.8
20260505120303 51 283 3.0 7.0 0.00 0.00 0.00 43 1004.8
20260505115305 51 270 6.0 12.0 0.00 0.00 0.00 43 1004.8
20260505114803 51 288 3.0 9.0 0.00 0.00 0.00 45 1004.7
20260505113803 51 282 3.0 8.0 0.00 0.00 0.00 46 1004.7
20260505113303 51 283 3.0 9.0 0.00 0.00 0.00 50 1004.7
20260505112803 50 295 4.0 5.0 0.00 0.00 0.00 49 1004.7
20260505112305 51 2 2.0 5.0 0.00 0.00 0.00 51 1004.7
20260505111803 51 63 2.0 10.0 0.00 0.00 0.00 50 1004.7
20260505111303 51 270 3.0 10.0 0.00 0.00 0.00 50 1004.7
20260505110803 52 213 2.0 6.0 0.00 0.00 0.00 50 1004.7
20260505110303 52 341 2.0 6.0 0.00 0.00 0.00 50 1004.6
20260505101803 49 307 3.0 8.0 0.00 0.00 0.00 61 1004.3
20260505100803 48 57 2.0 6.0 0.00 0.00 0.00 62 1004.3
20260505100303 48 268 2.0 5.0 0.00 0.00 0.00 61 1004.3
20260505095803 48 307 3.0 8.0 0.00 0.00 0.00 61 1004.3
20260505094803 49 304 2.0 6.0 0.00 0.00 0.00 62 1004.3
20260505094303 49 14 3.0 7.0 0.00 0.00 0.00 61 1004.3
20260505093803 49 38 3.0 7.0 0.00 0.00 0.00 61 1003.6
20260505092305 49 219 2.0 8.0 0.00 0.00 0.00 63 1003.6
20260505091303 49 340 2.0 8.0 0.00 0.00 0.00 64 1003.6
20260505090303 49 299 2.0 9.0 0.00 0.00 0.00 64 1003.6
20260505085803 49 279 5.0 9.0 0.00 0.00 0.00 64 1003.6
20260505085304 49 326 2.0 6.0 0.00 0.00 0.00 62 1003.6
20260505084303 49 303 2.0 7.0 0.00 0.00 0.00 64 1003.6
20260505083803 49 249 4.0 8.0 0.00 0.00 0.00 64 1003.6
20260505083304 49 294 4.0 8.0 0.00 0.00 0.00 63 1003.6
20260505082803 49 310 3.0 10.0 0.00 0.00 0.00 64 1003.6
20260505082304 48 349 2.0 7.0 0.00 0.00 0.00 69 1003.6
20260505081803 47 355 3.0 6.0 0.00 0.00 0.00 69 1003.6
20260505081303 48 338 2.0 3.0 0.00 0.00 0.00 67 1003.6
20260505080804 48 248 1.0 7.0 0.00 0.00 0.00 67 1003.6
20260505080303 47 273 2.0 7.0 0.00 0.00 0.00 67 1003.6
20260505075304 47 36 1.0 8.0 0.00 0.00 0.00 67 1003.6
20260505074804 47 280 4.0 8.0 0.00 0.00 0.00 67 1003.4
20260505074303 47 347 3.0 7.0 0.00 0.00 0.00 68 1003.4
20260505073303 47 191 0.0 3.0 0.00 0.00 0.00 69 1003.4
20260505072803 47 35 3.0 9.0 0.00 0.00 0.00 70 1001.1
20260505072305 46 268 3.0 7.0 0.00 0.00 0.00 70 1001.1
20260505071803 46 267 1.0 3.0 0.00 0.00 0.00 69 1001.1
20260505071303 46 27 2.0 8.0 0.00 0.00 0.00 69 1001.1
20260505070804 46 345 2.0 3.0 0.00 0.00 0.00 70 1001.1
20260505070303 46 313 2.0 5.0 0.00 0.00 0.00 70 1001.1
20260505065803 46 5 3.0 7.0 0.00 0.00 0.00 71 1001.1
20260505065304 46 32 4.0 10.0 0.00 0.00 0.00 71 1001.1
20260505064803 45 343 2.0 6.0 0.00 0.00 0.00 73 1001.1
20260505063803 45 263 5.0 10.0 0.00 0.00 0.00 73 1001.1
20260505063303 45 279 5.0 12.0 0.00 0.00 0.00 73 1001.1
20260505062803 45 116 2.0 9.0 0.00 0.00 0.00 75 1001.1
20260505062304 45 355 3.0 8.0 0.00 0.00 0.00 76 1001.1
20260505061803 45 13 2.0 6.0 0.00 0.00 0.00 77 1001.1
20260505060803 45 6 3.0 7.0 0.00 0.00 0.00 77 1001.1
20260505060303 45 45 3.0 8.0 0.00 0.00 0.00 77 1001.1
20260505055803 45 25 3.0 6.0 0.00 0.00 0.00 78 1001.1
20260505055304 45 5 2.0 9.0 0.00 0.00 0.00 78 1001.1